TimeMST,TemperatureF,Dew PointF,Humidity,Sea Level PressureIn,VisibilityMPH,Wind Direction,Wind SpeedMPH,Gust SpeedMPH,PrecipitationIn,Events,Conditions,WindDirDegrees,DateUTC
12:53 AM,32.0,14.0,48,30.38,10.0,SSE,10.4,-,N/A,,Clear,150,2013-11-07 07:53:00
1:53 AM,30.0,14.0,51,30.38,10.0,SE,6.9,-,N/A,,Clear,130,2013-11-07 08:53:00
2:53 AM,32.0,14.0,48,30.38,10.0,SE,6.9,-,N/A,,Clear,140,2013-11-07 09:53:00
3:53 AM,28.9,14.0,54,30.39,10.0,South,9.2,-,N/A,,Clear,170,2013-11-07 10:53:00
4:53 AM,28.9,15.1,56,30.42,10.0,South,8.1,-,N/A,,Clear,180,2013-11-07 11:53:00
5:53 AM,28.0,15.1,58,30.43,10.0,East,10.4,-,N/A,,Clear,100,2013-11-07 12:53:00
6:53 AM,30.0,15.1,54,30.43,10.0,South,9.2,-,N/A,,Scattered Clouds,180,2013-11-07 13:53:00
7:53 AM,36.0,17.1,46,30.43,10.0,South,6.9,-,N/A,,Scattered Clouds,190,2013-11-07 14:53:00
8:53 AM,46.0,19.0,34,30.39,10.0,Variable,3.5,-,N/A,,Scattered Clouds,0,2013-11-07 15:53:00
9:53 AM,51.1,17.1,26,30.35,10.0,Variable,3.5,-,N/A,,Scattered Clouds,0,2013-11-07 16:53:00
10:53 AM,54.0,17.1,23,30.34,10.0,South,5.8,-,N/A,,Partly Cloudy,170,2013-11-07 17:53:00
11:53 AM,57.9,17.1,20,30.27,10.0,NNW,4.6,-,N/A,,Scattered Clouds,340,2013-11-07 18:53:00
12:53 PM,59.0,17.1,20,30.22,10.0,NNE,6.9,-,N/A,,Scattered Clouds,30,2013-11-07 19:53:00
1:53 PM,60.1,17.1,19,30.20,10.0,North,3.5,-,N/A,,Scattered Clouds,360,2013-11-07 20:53:00
2:53 PM,60.1,17.1,19,30.17,10.0,North,9.2,-,N/A,,Scattered Clouds,10,2013-11-07 21:53:00
3:53 PM,57.9,18.0,21,30.17,10.0,NNE,8.1,-,N/A,,Scattered Clouds,30,2013-11-07 22:53:00
4:53 PM,53.1,18.0,25,30.18,10.0,South,4.6,-,N/A,,Scattered Clouds,170,2013-11-07 23:53:00
5:53 PM,48.9,21.9,35,30.19,10.0,WSW,6.9,-,N/A,,Partly Cloudy,240,2013-11-08 00:53:00
6:53 PM,42.1,21.0,43,30.21,10.0,South,6.9,-,N/A,,Partly Cloudy,190,2013-11-08 01:53:00
7:53 PM,41.0,19.0,41,30.15,10.0,South,8.1,-,N/A,,Clear,180,2013-11-08 02:53:00
8:53 PM,42.1,18.0,38,30.09,10.0,SSE,4.6,-,N/A,,Clear,150,2013-11-08 03:53:00
9:53 PM,36.0,18.0,48,30.06,10.0,East,8.1,-,N/A,,Clear,100,2013-11-08 04:53:00
10:53 PM,45.0,17.1,33,29.99,10.0,SSE,8.1,-,N/A,,Clear,150,2013-11-08 05:53:00
11:53 PM,48.9,16.0,27,29.92,10.0,SSW,15.0,-,N/A,,Clear,200,2013-11-08 06:53:00